Preview of NWS' New Version of Forecast
This preview is not operational and should not be used for support decisions.

Regional Weather Roundup (RWR)

Issued by Philadelphia/Mt Holly (PHI)

                            
000
ASUS41 KPHI 251112
RWRPHI

REGIONAL WEATHER ROUNDUP
NATIONAL WEATHER SERVICE MOUNT HOLLY NJ
700 AM EDT SAT MAY 25 2019

NOTE:  "FAIR" INDICATES FEW OR NO CLOUDS BELOW 12,000 FEET WITH NO
SIGNIFICANT WEATHER AND/OR OBSTRUCTIONS TO VISIBILITY.

 * = STATION DOES NOT REPORT PRECIPITATION (E.G. RAIN, SNOW, ETC.) 
        OR FOG.

NJZ015>026-251200-
SOUTHERN NEW JERSEY
  
CITY           SKY/WX    TMP DP  RH WIND       PRES   REMARKS
POMONA         FAIR      59  53  80 SE7       30.22R                  
WILDWOOD*      FAIR      62  54  74 E10       30.22R                  
MILLVILLE      FAIR      58  53  84 SE5       30.21R                  
WRIGHTSTOWN    FAIR      56  51  83 CALM      30.21R HAZE             
MOUNT HOLLY    FAIR      56  51  84 CALM      30.22R                  
TRENTON        FAIR      56  52  86 S7        30.22R                  

$$
NJZ001>014-251200-
NORTHERN NEW JERSEY
  
CITY           SKY/WX    TMP DP  RH WIND       PRES   REMARKS
SUSSEX         FAIR      48  48 100 CALM      30.22R                  
ANDOVER*         N/A     51  49  92 CALM      30.21R                  
MORRISTOWN     MOSUNNY   52  52 100 CALM      30.22R                  
NEWARK         PTSUNNY   58  52  80 VRB5      30.22R                  
TETERBORO      FAIR      58  49  72 S5        30.22R                  
CALDWELL       FAIR      56  53  90 CALM      30.23R                  
SOMERVILLE     FAIR      54  51  90 CALM      30.21R                  
ALLAIRE*       FAIR      56  51  84 SE3       30.24R                  
TOMS RIVER*    FAIR      54  51  90 CALM      30.24R                  

$$
PAZ043-044-047-054-055-060>062-066>071-251200-
EASTERN PENNSYLVANIA
  
CITY           SKY/WX    TMP DP  RH WIND       PRES   REMARKS
PHILADELPHIA   FAIR      59  52  77 SE7       30.22R                  
NORTH PHILA    FAIR      59  51  75 SE7       30.23R                  
BLUE BELL*     FAIR      55  52  89 CALM      30.22R                  
DOYLESTOWN     FAIR      55  49  80 SE5       30.21R                  
QUAKERTOWN*    SUNNY     54  52  94 CALM      30.21                   
PERKASIE*      FAIR      54  54 100 E3        30.22S                  
POTTSTOWN      FAIR      56  51  84 CALM      30.22R                  
LANCASTER      CLOUDY    62  52  69 E5        30.20R                  
COATESVILLE    PTSUNNY   59  50  72 VRB6      30.22R                  
WEST CHESTER   CLOUDY    59  50  72 E3        30.22R                  
READING        PTSUNNY   57  54  89 CALM      30.19R                  
ALLENTOWN      FAIR      59  49  69 SE5       30.20R                  
QN CITY/ALNTWN FAIR      55  52  88 CALM      30.21S                  
MOUNT POCONO   FAIR      51  48  89 E5        30.20S                  
HAZLETON       PTSUNNY   54  46  76 CALM      30.23R                  
LEHIGHTON      FAIR      50  50 100 CALM      30.22R                  
WILKES BARRE   FAIR      53  48  83 NE7       30.19R                  

$$
DEZALL-MDZ008-012-015-019-020-251200-
DELAWARE AND EASTERN MARYLAND
  
CITY           SKY/WX    TMP DP  RH WIND       PRES   REMARKS
WILMINGTON     CLOUDY    61  52  72 SE9       30.21R                  
DOVER          CLOUDY    62  54  76 E10       30.20R                  
CHESWOLD         N/A     61  54  77 SE6G13    30.20R                  
GEORGETOWN     CLOUDY    61  58  90 SE5       30.21R                  
EASTON         MOSUNNY   64  55  72 E5        30.24R                  
STEVENSVILLE   CLOUDY    64  55  72 SE6       30.21R                  
PATUXENT       FAIR      66  57  72 E9        30.19                   
OCEAN CITY     CLOUDY    62  57  83 SE9       30.21R                  
WALLOPS ISLAND FAIR      64  60  87 E7        30.20R                  
CAMBRIDGE      PTSUNNY   61  55  82 CALM      30.20R                  
SALISBURY      CLOUDY    63  58  83 E7        30.20R                  

$$
PAZ001-021-NYZ056-072-MDZ011-DCZ001-251200-
OTHER NEARBY LOCATIONS
  
CITY           SKY/WX    TMP DP  RH WIND       PRES   REMARKS
HARRISBURG     CLOUDY    63  50  62 SE6       30.19R                  
STATE COLLEGE  SUNNY     57  54  88 CALM      30.17R                  
WILLIAMSPORT   FAIR      55  50  83 CALM      30.17R                  
BINGHAMTON     FAIR      48  47  96 SE7       30.17R                  
NEW YORK CITY  FAIR      58  49  72 VRB3      30.24R                  
BALTIMORE      PTSUNNY   66  53  63 E7        30.20R                  
WASHINGTON DC  PTSUNNY   67  56  67 SE7       30.20R                  

$$